Change the Weather History Date:

Thursday, November 13, 2014

  Actual Average Record
Temperature  
Mean Temperature 78 °F 76 °F  
Max Temperature 83 °F 84 °F 92 °F (1968)
Min Temperature 72 °F 68 °F 59 °F (1967)
Degree Days  
Heating Degree Days 0 0  
Month to date heating degree days 0 0  
Since 1 July heating degree days 0 0  
Cooling Degree Days 13 11  
Month to date cooling degree days 167 153  
Year to date cooling degree days 4003 3529  
Growing Degree Days 26 (Base 50)    
Moisture  
Dew Point 71 °F    
Average Humidity 79    
Maximum Humidity 88    
Minimum Humidity 69    
Precipitation  
Precipitation 0.11 in 0.07 in 2.61 in (1996)
Month to date precipitation 0.24 0.79  
Year to date precipitation 17.49 13.07  
Snow  
Snow 0.00 in - - ()
Month to date snowfall 0.0  
Since 1 July snowfall 0.0  
Since 1 September snowfall 0.0  
Snow Depth 0.00 in    
Sea Level Pressure  
Sea Level Pressure 29.90 in    
Wind  
Wind Speed 6 mph (South)    
Max Wind Speed 22 mph    
Max Gust Speed 25 mph    
Visibility 9 miles    
Events Rain    
T = Trace of Precipitation, MM = Missing Value Source: NWS Daily Summary

Daily Weather History Graph

Daily Weather History Graph

Search for Another Location

Airport or City:

Trip Planner

Search our weather history database for the weather conditions in past years. The results will help you decide how hot, cold, wet, or windy it might be!

Date:

Astronomy

Nov. 13, 2014 Rise Set
Actual Time 6:34 AM HST 5:45 PM HST
Civil Twilight 6:11 AM HST 6:08 PM HST
Nautical Twilight 5:44 AM HST 6:35 PM HST
Astronomical Twilight 5:18 AM HST 7:01 PM HST
Moon 11:58 PM HST (11/13) 12:11 PM HST (11/13)
Length of Visible Light 11h 56m
Length of Day
11h 10m
Waning Gibbous, 57% of the Moon is Illuminated
Nov 13
Waning Gibbous
Nov 14
Last Quarter
Nov 22
New
Nov 29
First Quarter
Dec 6
Full

Hourly Weather History & Observations

Time (HST) Temp. Heat Index Dew Point Humidity Pressure Visibility Wind Dir Wind Speed Gust Speed Precip Events Conditions
12:54 AM 73.0 °F - 68.0 °F 84% 29.95 in 9.0 mi Calm Calm - N/A   Overcast
1:54 AM 75.0 °F - 69.1 °F 82% 29.93 in 10.0 mi NNW 4.6 mph - N/A   Mostly Cloudy
2:54 AM 73.0 °F - 68.0 °F 84% 29.91 in 9.0 mi Calm Calm - N/A   Overcast
3:54 AM 73.0 °F - 69.1 °F 87% 29.91 in 10.0 mi SSE 5.8 mph - 0.00 in   Overcast
4:54 AM 73.9 °F - 70.0 °F 87% 29.91 in 9.0 mi Calm Calm - N/A   Mostly Cloudy
5:54 AM 73.0 °F - 70.0 °F 90% 29.92 in 10.0 mi WSW 3.5 mph - N/A   Scattered Clouds
6:54 AM 73.9 °F - 70.0 °F 87% 29.93 in 10.0 mi SSE 3.5 mph - N/A   Mostly Cloudy
7:54 AM 75.0 °F - 70.0 °F 84% 29.95 in 10.0 mi SSW 3.5 mph - N/A   Mostly Cloudy
8:54 AM 78.1 °F - 71.1 °F 79% 29.96 in 10.0 mi South 4.6 mph - N/A   Mostly Cloudy
9:54 AM 79.0 °F - 71.1 °F 77% 29.96 in 10.0 mi South 3.5 mph - N/A   Mostly Cloudy
10:54 AM 81.0 °F 84.4 °F 70.0 °F 69% 29.95 in 10.0 mi North 6.9 mph - 0.00 in Rain Light Rain
11:54 AM 81.0 °F 84.4 °F 70.0 °F 69% 29.92 in 10.0 mi NNW 8.1 mph - 0.00 in   Mostly Cloudy
12:54 PM 80.1 °F 82.9 °F 69.1 °F 69% 29.89 in 10.0 mi NNE 4.6 mph - 0.00 in   Mostly Cloudy
1:54 PM 78.1 °F - 71.1 °F 79% 29.87 in 10.0 mi NNW 5.8 mph - 0.00 in   Overcast
2:54 PM 78.1 °F - 72.0 °F 81% 29.86 in 10.0 mi North 6.9 mph - 0.01 in   Overcast
3:54 PM 78.1 °F - 72.0 °F 81% 29.86 in 10.0 mi NE 9.2 mph - N/A   Overcast
4:54 PM 75.9 °F - 70.0 °F 82% 29.86 in 10.0 mi ENE 3.5 mph - 0.00 in   Overcast
5:23 PM 75.2 °F - 71.6 °F 89% 29.84 in 2.0 mi NE 6.9 mph - 0.02 in Rain Light Rain
5:44 PM 75.2 °F - 71.6 °F 89% 29.85 in 3.0 mi Calm Calm - 0.06 in Rain Rain
5:54 PM 75.0 °F - 72.0 °F 90% 29.87 in 7.0 mi Calm Calm - 0.07 in Rain Light Rain
6:54 PM 75.0 °F - 72.0 °F 90% 29.88 in 8.0 mi NNE 3.5 mph - 0.01 in Rain Light Rain
7:54 PM 75.0 °F - 72.0 °F 90% 29.89 in 10.0 mi South 6.9 mph - 0.01 in   Overcast
8:54 PM 75.9 °F - 72.0 °F 87% 29.89 in 10.0 mi SSW 13.8 mph - N/A   Partly Cloudy
9:54 PM 77.0 °F - 73.9 °F 90% 29.89 in 10.0 mi SSW 19.6 mph - 0.00 in   Partly Cloudy
10:54 PM 77.0 °F - 73.9 °F 90% 29.89 in 10.0 mi SSW 16.1 mph - N/A   Scattered Clouds
11:54 PM 77.0 °F - 73.9 °F 90% 29.89 in 10.0 mi South 18.4 mph 23.0 mph 0.01 in   Scattered Clouds